Year,Month,Day,Hour,Minute,Value (Times are PST for temperature in C)
2017,05,25,00,00,8.10
2017,05,25,00,01,8.10
2017,05,25,00,02,8.10
2017,05,25,00,03,8.10
2017,05,25,00,04,8.10
2017,05,25,00,05,8.10
2017,05,25,00,06,8.10
2017,05,25,00,07,8.10
2017,05,25,00,08,8.10
2017,05,25,00,09,8.20
2017,05,25,00,10,8.20
2017,05,25,00,11,8.20
2017,05,25,00,12,8.20
2017,05,25,00,13,8.20
2017,05,25,00,14,8.20
2017,05,25,00,15,8.20
2017,05,25,00,16,8.10
2017,05,25,00,17,8.10
2017,05,25,00,18,8.00
2017,05,25,00,19,8.00
2017,05,25,00,20,7.90
2017,05,25,00,21,7.90
2017,05,25,00,22,7.90
2017,05,25,00,23,7.90
2017,05,25,00,24,7.90
2017,05,25,00,25,7.90
2017,05,25,00,26,7.90
2017,05,25,00,27,8.00
2017,05,25,00,28,8.00
2017,05,25,00,29,8.00
2017,05,25,00,30,8.00
2017,05,25,00,31,8.00
2017,05,25,00,32,8.00
2017,05,25,00,33,8.00
2017,05,25,00,34,8.00
2017,05,25,00,35,8.00
2017,05,25,00,36,8.00
2017,05,25,00,37,8.00
2017,05,25,00,38,8.10
2017,05,25,00,39,8.10
2017,05,25,00,40,8.10
2017,05,25,00,41,8.10
2017,05,25,00,42,8.10
2017,05,25,00,43,8.10
2017,05,25,00,44,8.10
2017,05,25,00,45,8.10
2017,05,25,00,46,8.10
2017,05,25,00,47,8.00
2017,05,25,00,48,8.00
2017,05,25,00,49,8.00
2017,05,25,00,50,8.00
2017,05,25,00,51,8.00
2017,05,25,00,52,8.00
2017,05,25,00,53,8.00
2017,05,25,00,54,8.00
2017,05,25,00,55,8.00
2017,05,25,00,56,8.00
2017,05,25,00,57,8.00
2017,05,25,00,58,7.90
2017,05,25,00,59,7.90
2017,05,25,01,00,7.90
2017,05,25,01,01,7.90
2017,05,25,01,02,7.90
2017,05,25,01,03,7.90
2017,05,25,01,04,7.80
2017,05,25,01,05,7.80
2017,05,25,01,06,7.80
2017,05,25,01,07,7.80
2017,05,25,01,08,7.70
2017,05,25,01,09,7.70
2017,05,25,01,10,7.70
2017,05,25,01,11,7.70
2017,05,25,01,12,7.70
2017,05,25,01,13,7.70
2017,05,25,01,14,7.70
2017,05,25,01,15,7.70
2017,05,25,01,16,7.70
2017,05,25,01,17,7.70
2017,05,25,01,18,7.70
2017,05,25,01,19,7.70
2017,05,25,01,20,7.70
2017,05,25,01,21,7.70
2017,05,25,01,22,7.70
2017,05,25,01,23,7.70
2017,05,25,01,24,7.60
2017,05,25,01,25,7.60
2017,05,25,01,26,7.60
2017,05,25,01,27,7.60
2017,05,25,01,28,7.60
2017,05,25,01,29,7.60
2017,05,25,01,30,7.60
2017,05,25,01,31,7.60
2017,05,25,01,32,7.60
2017,05,25,01,33,7.60
2017,05,25,01,34,7.60
2017,05,25,01,35,7.60
2017,05,25,01,36,7.60
2017,05,25,01,37,7.50
2017,05,25,01,38,7.50
2017,05,25,01,39,7.50
2017,05,25,01,40,7.50
2017,05,25,01,41,7.40
2017,05,25,01,42,7.40
2017,05,25,01,43,7.40
2017,05,25,01,44,7.30
2017,05,25,01,45,7.30
2017,05,25,01,46,7.30
2017,05,25,01,47,7.30
2017,05,25,01,48,7.30
2017,05,25,01,49,7.30
2017,05,25,01,50,7.30
2017,05,25,01,51,7.30
2017,05,25,01,52,7.30
2017,05,25,01,53,7.30
2017,05,25,01,54,7.30
2017,05,25,01,55,7.30
2017,05,25,01,56,7.30
2017,05,25,01,57,7.30
2017,05,25,01,58,7.30
2017,05,25,01,59,7.30
2017,05,25,02,00,7.30
2017,05,25,02,01,7.30
2017,05,25,02,02,7.30
2017,05,25,02,03,7.30
2017,05,25,02,04,7.30
2017,05,25,02,05,7.30
2017,05,25,02,06,7.30
2017,05,25,02,07,7.20
2017,05,25,02,08,7.20
2017,05,25,02,09,7.20
2017,05,25,02,10,7.20
2017,05,25,02,11,7.20
2017,05,25,02,12,7.20
2017,05,25,02,13,7.20
2017,05,25,02,14,7.10
2017,05,25,02,15,7.10
2017,05,25,02,16,7.10
2017,05,25,02,17,7.10
2017,05,25,02,18,7.10
2017,05,25,02,19,7.10
2017,05,25,02,20,7.10
2017,05,25,02,21,7.10
2017,05,25,02,22,7.10
2017,05,25,02,23,7.10
2017,05,25,02,24,7.10
2017,05,25,02,25,7.10
2017,05,25,02,26,7.10
2017,05,25,02,27,7.10
2017,05,25,02,28,7.10
2017,05,25,02,29,7.10
2017,05,25,02,30,7.00
2017,05,25,02,31,7.00
2017,05,25,02,32,7.10
2017,05,25,02,33,7.10
2017,05,25,02,34,7.10
2017,05,25,02,35,7.10
2017,05,25,02,36,7.10
2017,05,25,02,37,7.10
2017,05,25,02,38,7.10
2017,05,25,02,39,7.10
2017,05,25,02,40,7.10
2017,05,25,02,41,7.10
2017,05,25,02,42,7.10
2017,05,25,02,43,7.10
2017,05,25,02,44,7.10
2017,05,25,02,45,7.10
2017,05,25,02,46,7.10
2017,05,25,02,47,7.10
2017,05,25,02,48,7.00
2017,05,25,02,49,7.00
2017,05,25,02,50,6.90
2017,05,25,02,51,6.90
2017,05,25,02,52,6.80
2017,05,25,02,53,6.80
2017,05,25,02,54,6.80
2017,05,25,02,55,6.70
2017,05,25,02,56,6.70
2017,05,25,02,57,6.70
2017,05,25,02,58,6.70
2017,05,25,02,59,6.60
2017,05,25,03,00,6.70
2017,05,25,03,01,6.70
2017,05,25,03,02,6.70
2017,05,25,03,03,6.70
2017,05,25,03,04,6.70
2017,05,25,03,05,6.70
2017,05,25,03,06,6.70
2017,05,25,03,07,6.70
2017,05,25,03,08,6.70
2017,05,25,03,09,6.70
2017,05,25,03,10,6.70
2017,05,25,03,11,6.70
2017,05,25,03,12,6.70
2017,05,25,03,13,6.70
2017,05,25,03,14,6.70
2017,05,25,03,15,6.70
2017,05,25,03,16,6.70
2017,05,25,03,17,6.70
2017,05,25,03,18,6.70
2017,05,25,03,19,6.70
2017,05,25,03,20,6.70
2017,05,25,03,21,6.70
2017,05,25,03,22,6.70
2017,05,25,03,23,6.70
2017,05,25,03,24,6.70
2017,05,25,03,25,6.70
2017,05,25,03,26,6.70
2017,05,25,03,27,6.70
2017,05,25,03,28,6.70
2017,05,25,03,29,6.70
2017,05,25,03,30,6.70
2017,05,25,03,31,6.70
2017,05,25,03,32,6.70
2017,05,25,03,33,6.60
2017,05,25,03,34,6.60
2017,05,25,03,35,6.70
2017,05,25,03,36,6.60
2017,05,25,03,37,6.60
2017,05,25,03,38,6.60
2017,05,25,03,39,6.60
2017,05,25,03,40,6.60
2017,05,25,03,41,6.60
2017,05,25,03,42,6.70
2017,05,25,03,43,6.70
2017,05,25,03,44,6.70
2017,05,25,03,45,6.70
2017,05,25,03,46,6.70
2017,05,25,03,47,6.70
2017,05,25,03,48,6.70
2017,05,25,03,49,6.70
2017,05,25,03,50,6.70
2017,05,25,03,51,6.70
2017,05,25,03,52,6.70
2017,05,25,03,53,6.70
2017,05,25,03,54,6.70
2017,05,25,03,55,6.70
2017,05,25,03,56,6.70
2017,05,25,03,57,6.70
2017,05,25,03,58,6.70
2017,05,25,03,59,6.70
2017,05,25,04,00,6.70
2017,05,25,04,01,6.70
2017,05,25,04,02,6.70
2017,05,25,04,03,6.70
2017,05,25,04,04,6.60
2017,05,25,04,05,6.60
2017,05,25,04,06,6.60
2017,05,25,04,07,6.60
2017,05,25,04,08,6.60
2017,05,25,04,09,6.60
2017,05,25,04,10,6.60
2017,05,25,04,11,6.60
2017,05,25,04,12,6.60
2017,05,25,04,13,6.60
2017,05,25,04,14,6.50
2017,05,25,04,15,6.50
2017,05,25,04,16,6.50
2017,05,25,04,17,6.40
2017,05,25,04,18,6.40
2017,05,25,04,19,6.50
2017,05,25,04,20,6.50
2017,05,25,04,21,6.60
2017,05,25,04,22,6.70
2017,05,25,04,23,6.70
2017,05,25,04,24,6.80
2017,05,25,04,25,6.80
2017,05,25,04,26,6.80
2017,05,25,04,27,6.80
2017,05,25,04,28,6.80
2017,05,25,04,29,6.80
2017,05,25,04,30,6.80
2017,05,25,04,31,6.80
2017,05,25,04,32,6.80
2017,05,25,04,33,6.80
2017,05,25,04,34,6.80
2017,05,25,04,35,6.80
2017,05,25,04,36,6.80
2017,05,25,04,37,6.80
2017,05,25,04,38,6.90
2017,05,25,04,39,6.90
2017,05,25,04,40,7.00
2017,05,25,04,41,7.00
2017,05,25,04,42,7.10
2017,05,25,04,43,7.10
2017,05,25,04,44,7.10
2017,05,25,04,45,7.10
2017,05,25,04,46,7.10
2017,05,25,04,47,7.10
2017,05,25,04,48,7.10
2017,05,25,04,49,7.10
2017,05,25,04,50,7.10
2017,05,25,04,51,7.10
2017,05,25,04,52,7.10
2017,05,25,04,53,7.10
2017,05,25,04,54,7.00
2017,05,25,04,55,7.00
2017,05,25,04,56,6.90
2017,05,25,04,57,6.90
2017,05,25,04,58,6.90
2017,05,25,04,59,6.80
2017,05,25,05,00,6.80
2017,05,25,05,01,6.80
2017,05,25,05,02,6.70
2017,05,25,05,03,6.70
2017,05,25,05,04,6.70
2017,05,25,05,05,6.70
2017,05,25,05,06,6.60
2017,05,25,05,07,6.60
2017,05,25,05,08,6.60
2017,05,25,05,09,6.60
2017,05,25,05,10,6.60
2017,05,25,05,11,6.60
2017,05,25,05,12,6.50
2017,05,25,05,13,6.50
2017,05,25,05,14,6.40
2017,05,25,05,15,6.40
2017,05,25,05,16,6.40
2017,05,25,05,17,6.40
2017,05,25,05,18,6.30
2017,05,25,05,19,6.30
2017,05,25,05,20,6.30
2017,05,25,05,21,6.30
2017,05,25,05,22,6.30
2017,05,25,05,23,6.30
2017,05,25,05,24,6.30
2017,05,25,05,25,6.30
2017,05,25,05,26,6.20
2017,05,25,05,27,6.20
2017,05,25,05,28,6.20
2017,05,25,05,29,6.20
2017,05,25,05,30,6.20
2017,05,25,05,31,6.20
2017,05,25,05,32,6.20
2017,05,25,05,33,6.20
2017,05,25,05,34,6.20
2017,05,25,05,35,6.20
2017,05,25,05,36,6.20
2017,05,25,05,37,6.20
2017,05,25,05,38,6.20
2017,05,25,05,39,6.20
2017,05,25,05,40,6.20
2017,05,25,05,41,6.10
2017,05,25,05,42,6.10
2017,05,25,05,43,6.10
2017,05,25,05,44,6.10
2017,05,25,05,45,6.10
2017,05,25,05,46,6.10
2017,05,25,05,47,6.10
2017,05,25,05,48,6.10
2017,05,25,05,49,6.10
2017,05,25,05,50,6.10
2017,05,25,05,51,6.10
2017,05,25,05,52,6.10
2017,05,25,05,53,6.20
2017,05,25,05,54,6.20
2017,05,25,05,55,6.30
2017,05,25,05,56,6.30
2017,05,25,05,57,6.30
2017,05,25,05,58,6.30
2017,05,25,05,59,6.30
2017,05,25,06,00,6.30
2017,05,25,06,01,6.40
2017,05,25,06,02,6.40
2017,05,25,06,03,6.40
2017,05,25,06,04,6.40
2017,05,25,06,05,6.40
2017,05,25,06,06,6.50
2017,05,25,06,07,6.50
2017,05,25,06,08,6.60
2017,05,25,06,09,6.60
2017,05,25,06,10,6.70
2017,05,25,06,11,6.70
2017,05,25,06,12,6.70
2017,05,25,06,13,6.70
2017,05,25,06,14,6.70
2017,05,25,06,15,6.80
2017,05,25,06,16,6.80
2017,05,25,06,17,6.80
2017,05,25,06,18,6.80
2017,05,25,06,19,6.90
2017,05,25,06,20,6.90
2017,05,25,06,21,7.00
2017,05,25,06,22,7.10
2017,05,25,06,23,7.10
2017,05,25,06,24,7.20
2017,05,25,06,25,7.30
2017,05,25,06,26,7.40
2017,05,25,06,27,7.50
2017,05,25,06,28,7.60
2017,05,25,06,29,7.70
2017,05,25,06,30,7.80
2017,05,25,06,31,7.90
2017,05,25,06,32,8.00
2017,05,25,06,33,8.10
2017,05,25,06,34,8.20
2017,05,25,06,35,8.20
2017,05,25,06,36,8.20
2017,05,25,06,37,8.20
2017,05,25,06,38,8.30
2017,05,25,06,39,8.30
2017,05,25,06,40,8.40
2017,05,25,06,41,8.40
2017,05,25,06,42,8.50
2017,05,25,06,43,8.60
2017,05,25,06,44,8.70
2017,05,25,06,45,8.80
2017,05,25,06,46,8.80
2017,05,25,06,47,8.90
2017,05,25,06,48,9.00
2017,05,25,06,49,9.10
2017,05,25,06,50,9.30
2017,05,25,06,51,9.40
2017,05,25,06,52,9.40
2017,05,25,06,53,9.40
2017,05,25,06,54,9.50
2017,05,25,06,55,9.50
2017,05,25,06,56,9.60
2017,05,25,06,57,9.70
2017,05,25,06,58,9.80
2017,05,25,06,59,9.90
2017,05,25,07,00,9.90
2017,05,25,07,01,10.00
2017,05,25,07,02,10.00
2017,05,25,07,03,10.10
2017,05,25,07,04,10.10
2017,05,25,07,05,10.10
2017,05,25,07,06,10.10
2017,05,25,07,07,10.10
2017,05,25,07,08,10.10
2017,05,25,07,09,10.10
2017,05,25,07,10,10.10
2017,05,25,07,11,10.10
2017,05,25,07,12,10.20
2017,05,25,07,13,10.30
2017,05,25,07,14,10.40
2017,05,25,07,15,10.50
2017,05,25,07,16,10.60
2017,05,25,07,17,10.70
2017,05,25,07,18,10.70
2017,05,25,07,19,10.80
2017,05,25,07,20,10.90
2017,05,25,07,21,10.90
2017,05,25,07,22,11.00
2017,05,25,07,23,11.10
2017,05,25,07,24,11.10
2017,05,25,07,25,11.20
2017,05,25,07,26,11.30
2017,05,25,07,27,11.40
2017,05,25,07,28,11.50
2017,05,25,07,29,11.60
2017,05,25,07,30,11.70
2017,05,25,07,31,11.70
2017,05,25,07,32,11.80
2017,05,25,07,33,11.80
2017,05,25,07,34,11.90
2017,05,25,07,35,11.90
2017,05,25,07,36,11.90
2017,05,25,07,37,11.90
2017,05,25,07,38,12.00
2017,05,25,07,39,12.10
2017,05,25,07,40,12.20
2017,05,25,07,41,12.30
2017,05,25,07,42,12.40
2017,05,25,07,43,12.50
2017,05,25,07,44,12.50
2017,05,25,07,45,12.60
2017,05,25,07,46,12.60
2017,05,25,07,47,12.70
2017,05,25,07,48,12.70
2017,05,25,07,49,12.80
2017,05,25,07,50,12.80
2017,05,25,07,51,12.80
2017,05,25,07,52,12.80
2017,05,25,07,53,12.80
2017,05,25,07,54,12.80
2017,05,25,07,55,12.80
2017,05,25,07,56,12.90
2017,05,25,07,57,12.90
2017,05,25,07,58,12.90
2017,05,25,07,59,12.90
2017,05,25,08,00,12.90
2017,05,25,08,01,12.90
2017,05,25,08,02,12.90
2017,05,25,08,03,12.90
2017,05,25,08,04,12.90
2017,05,25,08,05,12.90
2017,05,25,08,06,13.00
2017,05,25,08,07,13.00
2017,05,25,08,08,13.00
2017,05,25,08,09,13.00
2017,05,25,08,10,13.10
2017,05,25,08,11,13.10
2017,05,25,08,12,13.20
2017,05,25,08,13,13.20
2017,05,25,08,14,13.20
2017,05,25,08,15,13.20
2017,05,25,08,16,13.30
2017,05,25,08,17,13.30
2017,05,25,08,18,13.30
2017,05,25,08,19,13.40
2017,05,25,08,20,13.40
2017,05,25,08,21,13.50
2017,05,25,08,22,13.60
2017,05,25,08,23,13.70
2017,05,25,08,24,13.80
2017,05,25,08,25,13.80
2017,05,25,08,26,13.90
2017,05,25,08,27,13.90
2017,05,25,08,28,14.00
2017,05,25,08,29,14.10
2017,05,25,08,30,14.10
2017,05,25,08,31,14.10
2017,05,25,08,32,14.10
2017,05,25,08,33,14.10
2017,05,25,08,34,14.20
2017,05,25,08,35,14.20
2017,05,25,08,36,14.30
2017,05,25,08,37,14.30
2017,05,25,08,38,14.30
2017,05,25,08,39,14.30
2017,05,25,08,40,14.40
2017,05,25,08,41,14.50
2017,05,25,08,42,14.60
2017,05,25,08,43,14.70
2017,05,25,08,44,14.80
2017,05,25,08,45,14.80
2017,05,25,08,46,14.80
2017,05,25,08,47,14.90
2017,05,25,08,48,14.90
2017,05,25,08,49,14.80
2017,05,25,08,50,14.80
2017,05,25,08,51,14.80
2017,05,25,08,52,14.80
2017,05,25,08,53,14.80
2017,05,25,08,54,14.80
2017,05,25,08,55,14.70
2017,05,25,08,56,14.60
2017,05,25,08,57,14.50
2017,05,25,08,58,14.40
2017,05,25,08,59,14.30
2017,05,25,09,00,14.10
2017,05,25,09,01,14.00
2017,05,25,09,02,14.00
2017,05,25,09,03,14.00
2017,05,25,09,04,14.00
2017,05,25,09,05,13.90
2017,05,25,09,06,13.90
2017,05,25,09,07,13.90
2017,05,25,09,08,13.90
2017,05,25,09,09,13.90
2017,05,25,09,10,13.90
2017,05,25,09,11,13.90
2017,05,25,09,12,13.80
2017,05,25,09,13,13.80
2017,05,25,09,14,13.50
2017,05,25,09,15,13.10
2017,05,25,09,16,12.80
2017,05,25,09,17,12.60
2017,05,25,09,18,12.50
2017,05,25,09,19,12.40
2017,05,25,09,20,12.20
2017,05,25,09,21,12.20
2017,05,25,09,22,12.20
2017,05,25,09,23,12.30
2017,05,25,09,24,12.30
2017,05,25,09,25,12.30
2017,05,25,09,26,12.30
2017,05,25,09,27,12.30
2017,05,25,09,28,12.30
2017,05,25,09,29,12.30
2017,05,25,09,30,12.30
2017,05,25,09,31,12.20
2017,05,25,09,32,12.20
2017,05,25,09,33,12.20
2017,05,25,09,34,12.20
2017,05,25,09,35,12.20
2017,05,25,09,36,12.20
2017,05,25,09,37,12.20
2017,05,25,09,38,12.30
2017,05,25,09,39,12.20
2017,05,25,09,40,12.30
2017,05,25,09,41,12.30
2017,05,25,09,42,12.20
2017,05,25,09,43,12.30
2017,05,25,09,44,12.30
2017,05,25,09,45,12.30
2017,05,25,09,46,12.20
2017,05,25,09,47,12.20
2017,05,25,09,48,12.20
2017,05,25,09,49,12.30
2017,05,25,09,50,12.30
2017,05,25,09,51,12.40
2017,05,25,09,52,12.40
2017,05,25,09,53,12.40
2017,05,25,09,54,12.30
2017,05,25,09,55,12.40
2017,05,25,09,56,12.40
2017,05,25,09,57,12.40
2017,05,25,09,58,12.30
2017,05,25,09,59,12.30
2017,05,25,10,00,12.30
2017,05,25,10,01,12.30
2017,05,25,10,02,12.30
2017,05,25,10,03,12.30
2017,05,25,10,04,12.40
2017,05,25,10,05,12.40
2017,05,25,10,06,12.40
2017,05,25,10,07,12.40
2017,05,25,10,08,12.40
2017,05,25,10,09,12.50
2017,05,25,10,10,12.60
2017,05,25,10,11,12.60
2017,05,25,10,12,12.60
2017,05,25,10,13,12.70
2017,05,25,10,14,12.70
2017,05,25,10,15,12.60
2017,05,25,10,16,12.60
2017,05,25,10,17,12.70
2017,05,25,10,18,12.70
2017,05,25,10,19,12.80
2017,05,25,10,20,12.90
2017,05,25,10,21,12.90
2017,05,25,10,22,12.90
2017,05,25,10,23,13.00
2017,05,25,10,24,13.00
2017,05,25,10,25,13.10
2017,05,25,10,26,13.10
2017,05,25,10,27,13.00
2017,05,25,10,28,12.90
2017,05,25,10,29,12.80
2017,05,25,10,30,12.80
2017,05,25,10,31,12.80
2017,05,25,10,32,12.80
2017,05,25,10,33,12.90
2017,05,25,10,34,12.90
2017,05,25,10,35,13.00
2017,05,25,10,36,13.00
2017,05,25,10,37,12.90
2017,05,25,10,38,12.80
2017,05,25,10,39,12.90
2017,05,25,10,40,12.90
2017,05,25,10,41,12.80
2017,05,25,10,42,12.80
2017,05,25,10,43,12.90
2017,05,25,10,44,13.00
2017,05,25,10,45,13.20
2017,05,25,10,46,13.10
2017,05,25,10,47,13.10
2017,05,25,10,48,13.10
2017,05,25,10,49,13.10
2017,05,25,10,50,13.10
2017,05,25,10,51,13.10
2017,05,25,10,52,13.10
2017,05,25,10,53,13.10
2017,05,25,10,54,13.10
2017,05,25,10,55,13.10
2017,05,25,10,56,13.10
2017,05,25,10,57,13.10
2017,05,25,10,58,13.10
2017,05,25,10,59,13.20
2017,05,25,11,00,13.30
2017,05,25,11,01,13.30
2017,05,25,11,02,13.40
2017,05,25,11,03,13.50
2017,05,25,11,04,13.50
2017,05,25,11,05,13.50
2017,05,25,11,06,13.40
2017,05,25,11,07,13.40
2017,05,25,11,08,13.40
2017,05,25,11,09,13.50
2017,05,25,11,10,13.50
2017,05,25,11,11,13.70
2017,05,25,11,12,13.80
2017,05,25,11,13,13.90
2017,05,25,11,14,14.00
2017,05,25,11,15,14.10
2017,05,25,11,16,14.10
2017,05,25,11,17,14.10
2017,05,25,11,18,14.00
2017,05,25,11,19,13.90
2017,05,25,11,20,13.80
2017,05,25,11,21,13.70
2017,05,25,11,22,13.70
2017,05,25,11,23,13.70
2017,05,25,11,24,13.80
2017,05,25,11,25,14.00
2017,05,25,11,26,14.00
2017,05,25,11,27,13.80
2017,05,25,11,28,13.70
2017,05,25,11,29,13.50
2017,05,25,11,30,13.50
2017,05,25,11,31,13.50
2017,05,25,11,32,13.50
2017,05,25,11,33,13.40
2017,05,25,11,34,13.40
2017,05,25,11,35,13.50
2017,05,25,11,36,13.70
2017,05,25,11,37,13.90
2017,05,25,11,38,13.90
2017,05,25,11,39,13.90
2017,05,25,11,40,13.90
2017,05,25,11,41,13.90
2017,05,25,11,42,13.90
2017,05,25,11,43,13.90
2017,05,25,11,44,13.80
2017,05,25,11,45,13.80
2017,05,25,11,46,13.80
2017,05,25,11,47,13.90
2017,05,25,11,48,13.90
2017,05,25,11,49,13.90
2017,05,25,11,50,13.80
2017,05,25,11,51,13.80
2017,05,25,11,52,13.70
2017,05,25,11,53,13.70
2017,05,25,11,54,13.70
2017,05,25,11,55,13.70
2017,05,25,11,56,13.70
2017,05,25,11,57,13.70
2017,05,25,11,58,13.70
2017,05,25,11,59,13.60
2017,05,25,12,00,13.50
2017,05,25,12,01,13.40
2017,05,25,12,02,13.50
2017,05,25,12,03,13.60
2017,05,25,12,04,13.70
2017,05,25,12,05,13.80
2017,05,25,12,06,13.90
2017,05,25,12,07,13.90
2017,05,25,12,08,13.90
2017,05,25,12,09,13.90
2017,05,25,12,10,13.90
2017,05,25,12,11,13.90
2017,05,25,12,12,13.90
2017,05,25,12,13,13.90
2017,05,25,12,14,13.80
2017,05,25,12,15,13.90
2017,05,25,12,16,13.90
2017,05,25,12,17,14.00
2017,05,25,12,18,14.10
2017,05,25,12,19,14.10
2017,05,25,12,20,14.20
2017,05,25,12,21,14.30
2017,05,25,12,22,14.20
2017,05,25,12,23,14.10
2017,05,25,12,24,14.00
2017,05,25,12,25,13.90
2017,05,25,12,26,13.80
2017,05,25,12,27,13.80
2017,05,25,12,28,13.90
2017,05,25,12,29,13.80
2017,05,25,12,30,13.80
2017,05,25,12,31,13.80
2017,05,25,12,32,13.80
2017,05,25,12,33,13.80
2017,05,25,12,34,13.70
2017,05,25,12,35,13.70
2017,05,25,12,36,13.80
2017,05,25,12,37,13.90
2017,05,25,12,38,14.00
2017,05,25,12,39,14.00
2017,05,25,12,40,14.00
2017,05,25,12,41,14.00
2017,05,25,12,42,13.90
2017,05,25,12,43,13.90
2017,05,25,12,44,13.80
2017,05,25,12,45,13.80
2017,05,25,12,46,13.70
2017,05,25,12,47,13.80
2017,05,25,12,48,13.80
2017,05,25,12,49,13.90
2017,05,25,12,50,13.90
2017,05,25,12,51,14.00
2017,05,25,12,52,14.10
2017,05,25,12,53,14.10
2017,05,25,12,54,14.10
2017,05,25,12,55,14.10
2017,05,25,12,56,14.10
2017,05,25,12,57,14.10
2017,05,25,12,58,14.00
2017,05,25,12,59,13.90
2017,05,25,13,00,13.90
2017,05,25,13,01,14.00
2017,05,25,13,02,13.90
2017,05,25,13,03,13.90
2017,05,25,13,04,14.00
2017,05,25,13,05,14.00
2017,05,25,13,06,14.00
2017,05,25,13,07,14.00
2017,05,25,13,08,14.10
2017,05,25,13,09,14.10
2017,05,25,13,10,14.10
2017,05,25,13,11,14.00
2017,05,25,13,12,14.00
2017,05,25,13,13,14.10
2017,05,25,13,14,14.20
2017,05,25,13,15,14.30
2017,05,25,13,16,14.40
2017,05,25,13,17,14.40
2017,05,25,13,18,14.50
2017,05,25,13,19,14.60
2017,05,25,13,20,14.50
2017,05,25,13,21,14.50
2017,05,25,13,22,14.50
2017,05,25,13,23,14.40
2017,05,25,13,24,14.40
2017,05,25,13,25,14.40
2017,05,25,13,26,14.50
2017,05,25,13,27,14.50
2017,05,25,13,28,14.60
2017,05,25,13,29,14.60
2017,05,25,13,30,14.60
2017,05,25,13,31,14.70
2017,05,25,13,32,14.70
2017,05,25,13,33,14.70
2017,05,25,13,34,14.60
2017,05,25,13,35,14.50
2017,05,25,13,36,14.60
2017,05,25,13,37,14.50
2017,05,25,13,38,14.50
2017,05,25,13,39,14.60
2017,05,25,13,40,14.60
2017,05,25,13,41,14.60
2017,05,25,13,42,14.60
2017,05,25,13,43,14.60
2017,05,25,13,44,14.50
2017,05,25,13,45,14.40
2017,05,25,13,46,14.40
2017,05,25,13,47,14.50
2017,05,25,13,48,14.60
2017,05,25,13,49,14.50
2017,05,25,13,50,14.60
2017,05,25,13,51,14.50
2017,05,25,13,52,14.50
2017,05,25,13,53,14.50
2017,05,25,13,54,14.60
2017,05,25,13,55,14.70
2017,05,25,13,56,14.80
2017,05,25,13,57,14.80
2017,05,25,13,58,14.90
2017,05,25,13,59,15.00
2017,05,25,14,00,15.00
2017,05,25,14,01,14.90
2017,05,25,14,02,14.80
2017,05,25,14,03,14.80
2017,05,25,14,04,14.80
2017,05,25,14,05,14.90
2017,05,25,14,06,14.80
2017,05,25,14,07,14.80
2017,05,25,14,08,14.80
2017,05,25,14,09,14.80
2017,05,25,14,10,14.80
2017,05,25,14,11,14.80
2017,05,25,14,12,14.80
2017,05,25,14,13,14.80
2017,05,25,14,14,14.80
2017,05,25,14,15,14.70
2017,05,25,14,16,14.70
2017,05,25,14,17,14.80
2017,05,25,14,18,14.80
2017,05,25,14,19,14.80
2017,05,25,14,20,14.80
2017,05,25,14,21,14.90
2017,05,25,14,22,14.90
2017,05,25,14,23,15.00
2017,05,25,14,24,15.00
2017,05,25,14,25,15.10
2017,05,25,14,26,15.30
2017,05,25,14,27,15.40
2017,05,25,14,28,15.30
2017,05,25,14,29,15.20
2017,05,25,14,30,15.20
2017,05,25,14,31,15.30
2017,05,25,14,32,15.40
2017,05,25,14,33,15.40
2017,05,25,14,34,15.30
2017,05,25,14,35,15.20
2017,05,25,14,36,15.10
2017,05,25,14,37,15.20
2017,05,25,14,38,15.20
2017,05,25,14,39,15.30
2017,05,25,14,40,15.30
2017,05,25,14,41,15.30
2017,05,25,14,42,15.30
2017,05,25,14,43,15.30
2017,05,25,14,44,15.40
2017,05,25,14,45,15.50
2017,05,25,14,46,15.50
2017,05,25,14,47,15.60
2017,05,25,14,48,15.60
2017,05,25,14,49,15.60
2017,05,25,14,50,15.50
2017,05,25,14,51,15.40
2017,05,25,14,52,15.30
2017,05,25,14,53,15.40
2017,05,25,14,54,15.40
2017,05,25,14,55,15.50
2017,05,25,14,56,15.60
2017,05,25,14,57,15.60
2017,05,25,14,58,15.60
2017,05,25,14,59,15.60
2017,05,25,15,00,15.70
2017,05,25,15,01,15.80
2017,05,25,15,02,15.90
2017,05,25,15,03,16.00
2017,05,25,15,04,15.90
2017,05,25,15,05,15.90
2017,05,25,15,06,15.80
2017,05,25,15,07,15.80
2017,05,25,15,08,15.70
2017,05,25,15,09,15.80
2017,05,25,15,10,15.90
2017,05,25,15,11,16.00
2017,05,25,15,12,16.20
2017,05,25,15,13,16.10
2017,05,25,15,14,16.20
2017,05,25,15,15,16.20
2017,05,25,15,16,16.30
2017,05,25,15,17,16.30
2017,05,25,15,18,16.40
2017,05,25,15,19,16.40
2017,05,25,15,20,16.50
2017,05,25,15,21,16.50
2017,05,25,15,22,16.50
2017,05,25,15,23,16.50
2017,05,25,15,24,16.40
2017,05,25,15,25,16.40
2017,05,25,15,26,16.50
2017,05,25,15,27,16.50
2017,05,25,15,28,16.70
2017,05,25,15,29,16.60
2017,05,25,15,30,16.30
2017,05,25,15,31,16.10
2017,05,25,15,32,16.00
2017,05,25,15,33,15.90
2017,05,25,15,34,15.70
2017,05,25,15,35,15.60
2017,05,25,15,36,15.50
2017,05,25,15,37,15.40
2017,05,25,15,38,15.50
2017,05,25,15,39,15.40
2017,05,25,15,40,15.40
2017,05,25,15,41,15.40
2017,05,25,15,42,15.40
2017,05,25,15,43,15.40
2017,05,25,15,44,15.60
2017,05,25,15,45,15.70
2017,05,25,15,46,15.80
2017,05,25,15,47,15.80
2017,05,25,15,48,15.80
2017,05,25,15,49,15.70
2017,05,25,15,50,15.70
2017,05,25,15,51,15.70
2017,05,25,15,52,15.70
2017,05,25,15,53,15.80
2017,05,25,15,54,15.70
2017,05,25,15,55,15.60
2017,05,25,15,56,15.60
2017,05,25,15,57,15.70
2017,05,25,15,58,15.80
2017,05,25,15,59,15.80
2017,05,25,16,00,15.80
2017,05,25,16,01,15.80
2017,05,25,16,02,15.70
2017,05,25,16,03,15.70
2017,05,25,16,04,15.80
2017,05,25,16,05,15.70
2017,05,25,16,06,15.80
2017,05,25,16,07,15.70
2017,05,25,16,08,15.70
2017,05,25,16,09,15.70
2017,05,25,16,10,15.80
2017,05,25,16,11,15.90
2017,05,25,16,12,15.80
2017,05,25,16,13,15.70
2017,05,25,16,14,15.60
2017,05,25,16,15,15.60
2017,05,25,16,16,15.60
2017,05,25,16,17,15.60
2017,05,25,16,18,15.70
2017,05,25,16,19,15.60
2017,05,25,16,20,15.70
2017,05,25,16,21,15.60
2017,05,25,16,22,15.60
2017,05,25,16,23,15.80
2017,05,25,16,24,15.90
2017,05,25,16,25,15.90
2017,05,25,16,26,15.90
2017,05,25,16,27,15.90
2017,05,25,16,28,15.80
2017,05,25,16,29,15.70
2017,05,25,16,30,15.50
2017,05,25,16,31,15.40
2017,05,25,16,32,15.40
2017,05,25,16,33,15.40
2017,05,25,16,34,15.40
2017,05,25,16,35,15.30
2017,05,25,16,36,15.30
2017,05,25,16,37,15.40
2017,05,25,16,38,15.40
2017,05,25,16,39,15.40
2017,05,25,16,40,15.50
2017,05,25,16,41,15.50
2017,05,25,16,42,15.60
2017,05,25,16,43,15.60
2017,05,25,16,44,15.70
2017,05,25,16,45,15.70
2017,05,25,16,46,15.70
2017,05,25,16,47,15.70
2017,05,25,16,48,15.70
2017,05,25,16,49,15.70
2017,05,25,16,50,15.60
2017,05,25,16,51,15.60
2017,05,25,16,52,15.60
2017,05,25,16,53,15.50
2017,05,25,16,54,15.50
2017,05,25,16,55,15.50
2017,05,25,16,56,15.60
2017,05,25,16,57,15.60
2017,05,25,16,58,15.60
2017,05,25,16,59,15.70
2017,05,25,17,00,15.70
2017,05,25,17,01,15.70
2017,05,25,17,02,15.70
2017,05,25,17,03,15.70
2017,05,25,17,04,15.60
2017,05,25,17,05,15.50
2017,05,25,17,06,15.30
2017,05,25,17,07,15.30
2017,05,25,17,08,15.30
2017,05,25,17,09,15.30
2017,05,25,17,10,15.20
2017,05,25,17,11,15.10
2017,05,25,17,12,15.20
2017,05,25,17,13,15.20
2017,05,25,17,14,15.20
2017,05,25,17,15,15.20
2017,05,25,17,16,15.20
2017,05,25,17,17,15.10
2017,05,25,17,18,15.20
2017,05,25,17,19,15.30
2017,05,25,17,20,15.30
2017,05,25,17,21,15.20
2017,05,25,17,22,15.20
2017,05,25,17,23,15.20
2017,05,25,17,24,15.10
2017,05,25,17,25,15.20
2017,05,25,17,26,15.20
2017,05,25,17,27,15.20
2017,05,25,17,28,15.00
2017,05,25,17,29,15.00
2017,05,25,17,30,15.00
2017,05,25,17,31,14.90
2017,05,25,17,32,14.90
2017,05,25,17,33,14.80
2017,05,25,17,34,14.80
2017,05,25,17,35,14.80
2017,05,25,17,36,14.80
2017,05,25,17,37,14.90